Weather History for Mexico City Airport, Mexico

Change the Weather History Date:

Thursday, August 11, 2011

  Actual Average Record
Temperature  
Mean Temperature 70 °F -  
Max Temperature 82 °F 72 °F 82 °F (2011)
Min Temperature 59 °F 53 °F 48 °F (1996)
Cooling Degree Days 6    
Growing Degree Days 20 (Base 50)    
Moisture  
Dew Point 49 °F    
Average Humidity 52    
Maximum Humidity 77    
Minimum Humidity 23    
Precipitation  
Precipitation 0.00 in - - ()
Sea Level Pressure  
Sea Level Pressure 30.16 in    
Wind  
Wind Speed 4 mph ()    
Max Wind Speed 21 mph    
Max Gust Speed 30 mph    
Visibility 13.9 miles    
Events      
Averages and records for this station are not official NWS values.
T = Trace of Precipitation, MM = Missing Value Source: Averaged Metar Reports

Daily Weather History Graph

Daily Weather History Graph

Search for Another Location

Airport:

Trip Planner

Search our weather history database for the weather conditions in past years. The results will help you decide how hot, cold, wet, or windy it might be!

Date:

Astronomy

Aug. 11, 2011 Rise Set
Actual Time 7:15 AM CDT 8:07 PM CDT
Civil Twilight 6:52 AM CDT 8:30 PM CDT
Nautical Twilight 6:25 AM CDT 8:57 PM CDT
Astronomical Twilight 5:58 AM CDT 9:24 PM CDT
Moon 6:39 PM CDT (8/11) 5:16 AM CDT (8/11)
Length of Visible Light 13h 37m
Length of Day
12h 51m
Waxing Gibbous, 96% of the Moon is Illuminated
Aug 11
Waxing Gibbous
Aug 13
Full
Aug 21
Last Quarter
Aug 28
New
Sep 4
First Quarter

Hourly Weather History & Observations

Time (CDT) Temp. Dew Point Humidity Pressure Visibility Wind Dir Wind Speed Gust Speed Precip Events Conditions
12:51 AM 64.4 °F 50.0 °F 59% 29.79 in 15.0 mi ESE 8.1 mph - N/A   Scattered Clouds
1:52 AM 64.4 °F 51.8 °F 64% 30.32 in 15.0 mi ESE 8.1 mph - N/A   Scattered Clouds
2:53 AM 62.6 °F 51.8 °F 68% 30.32 in 15.0 mi SE 5.8 mph - N/A   Scattered Clouds
3:48 AM 62.6 °F 50.0 °F 63% 29.75 in 15.0 mi Calm Calm - N/A   Clear
4:44 AM 60.8 °F 51.8 °F 72% 30.30 in 15.0 mi Calm Calm - N/A   Clear
5:47 AM 60.8 °F 51.8 °F 72% 30.32 in 15.0 mi Calm Calm - N/A   Clear
6:48 AM 60.8 °F 51.8 °F 72% 29.79 in 14.0 mi Calm Calm - N/A   Scattered Clouds
7:23 AM 60.8 °F 51.8 °F 72% 30.32 in 15.0 mi Calm Calm - N/A   Scattered Clouds
7:45 AM 60.8 °F 50.0 °F 68% 30.33 in 15.0 mi NNE 3.5 mph - N/A   Scattered Clouds
8:22 AM 59.0 °F 51.8 °F 77% 30.34 in 15.0 mi Calm Calm - N/A   Scattered Clouds
8:38 AM 62.6 °F 51.8 °F 68% 30.34 in 15.0 mi Calm Calm - N/A   Scattered Clouds
8:48 AM 64.4 °F 51.8 °F 64% 30.34 in 15.0 mi Calm Calm - N/A   Scattered Clouds
9:24 AM 64.4 °F 51.8 °F 64% 30.34 in 15.0 mi Calm Calm - N/A   Partly Cloudy
9:46 AM 68.0 °F 51.8 °F 56% 29.78 in 15.0 mi Calm Calm - N/A   Partly Cloudy
10:20 AM 69.8 °F 51.8 °F 53% 30.33 in 15.0 mi ENE 3.5 mph - N/A   Partly Cloudy
10:45 AM 71.6 °F 51.8 °F 50% 30.33 in 15.0 mi Calm Calm - N/A   Scattered Clouds
11:03 AM 71.6 °F 51.8 °F 50% 30.33 in 15.0 mi Calm Calm - N/A   Scattered Clouds
11:12 AM 71.6 °F 51.8 °F 50% 30.33 in 15.0 mi Calm Calm - N/A   Partly Cloudy
11:33 AM 75.2 °F 46.4 °F 36% 30.32 in 15.0 mi ENE 4.6 mph - N/A   Scattered Clouds
11:46 AM 75.2 °F 46.4 °F 36% 30.32 in 15.0 mi ENE 6.9 mph - N/A   Scattered Clouds
12:42 PM 77.0 °F 37.4 °F 24% 29.73 in 15.0 mi Calm Calm - N/A   Scattered Clouds
1:48 PM 78.8 °F 42.8 °F 28% 30.27 in 15.0 mi NNE 8.1 mph - N/A   Scattered Clouds
2:43 PM 80.6 °F 42.8 °F 26% 30.25 in 12.0 mi NNE 9.2 mph - N/A   Scattered Clouds
3:44 PM 80.6 °F 41.0 °F 24% 29.55 in 12.0 mi North 6.9 mph - N/A   Scattered Clouds
4:46 PM 82.4 °F 41.0 °F 23% 30.19 in 10.0 mi ENE 15.0 mph - N/A   Scattered Clouds
5:32 PM 78.8 °F 46.4 °F 32% 30.22 in 10.0 mi East 13.8 mph 29.9 mph N/A   Mostly Cloudy
5:45 PM 71.6 °F 46.4 °F 41% 30.22 in 10.0 mi ENE 20.7 mph - N/A   Mostly Cloudy
6:50 PM 71.6 °F 48.2 °F 43% 29.71 in 10.0 mi East 11.5 mph - N/A   Mostly Cloudy
7:45 PM 69.8 °F 44.6 °F 40% 30.27 in 10.0 mi ESE 11.5 mph - N/A   Mostly Cloudy
8:44 PM 68.0 °F 50.0 °F 52% 30.28 in 12.0 mi WSW 9.2 mph - N/A   Mostly Cloudy
9:47 PM 66.2 °F 51.8 °F 60% 29.77 in 15.0 mi West 9.2 mph - N/A   Mostly Cloudy
10:49 PM 64.4 °F 50.0 °F 59% 30.32 in 15.0 mi Calm Calm - N/A   Mostly Cloudy
11:46 PM 64.4 °F 50.0 °F 59% 30.32 in 15.0 mi Calm Calm - N/A   Mostly Cloudy